CZ-6A DEB, 61266

Orbit data source: Space-Track

CZ-6A DEB, 61266 is space debris in LEO originally from a launch on Tue, 06 Aug 2024 UTC launched from the Taiyaun Space Center, China (TSC). Debris objects in space refer to the collection of defunct objects orbiting the Earth. Examples of debris include non-operational satellites, rocket bodies, and fragments generated from explosions, collisions, or faulty payload assembly.

Loading next visibility...
Identifier
61266, 2024-140SB
Orbit
LEO
Country
Flag of CNCN / PRC
Related business
Manufacturer
SAST
Mission
Spacecraft
Bus & Motor
Unknown
Mass
Unknown
Launch date (UTC)
2024-08-06 (2 years ago)
Launch vehicle
Unknown
Launch site
Taiyaun Space Center, China (TSC)
Object type
Payload
Rocket body
Debris
Shape & HBR
Unknown shape, 1.1 m
Radar Cross Section
Small (<0.1 m²)

Expand to show TLE details & history
Last TLE update: 13 hours ago

TLE from 13 hours ago
0 CZ-6A DEB
1 61266U 24140SB  26130.05734293  .00008279  00000-0  15641-2 0  9992
2 61266  88.5720 241.7948 0049390 316.0449  43.6841 14.63559410 90182
Epoch: 2026-05-10T01:22Z
TLE epoch observation values (Epoch: 2026-05-10T01:22:34.429Z)
Latitude
0.00003°
Longitude
-6.71454°
Altitude
659.679 km
Speed
7.541 km/s
True Right ascension
16h 07m 10s
True Declination
0° 00' 00"
Sunlit
Object was in full shadow at epoch
Visualization orbit readout
Latitude
Unknown
Longitude
Unknown
Altitude
Unknown
Speed
Unknown
Apparent Right ascension
Unknown
Apparent Declination
Unknown
Sunlit
N/A
Visualization observer readout
Local Sidereal Time
22:11:21
Azimuth
Unknown
Elevation
Unknown
Doppler factor
Unknown
Orbital elements
Apogee altitude
713.449 km
Perigee altitude
643.743 km
Semi-major axis
7,056.733 km
Eccentricity
0.00494
Inclination
88.572°
RAAN
241.7948°
Arg. of periapsis
316.0449°
True anomaly
44.07675°
Mean anomaly
43.6841°
Eccentric anomaly
43.88025°
Mean motion
3.66132 °/min
Orbital period
98.33 mins
BSTAR
0.0015641
Loading maneuver chart data...
Computing Atmospheric mass density...
Loading historical data...
Loading historical data...
Loading historical data...
Loading historical data...
Loading historical data...
Loading historical data...
Loading historical data...

Documentation

Showing up to 5 results
|